New York, NY

7:29 PM EST on December 07, 2019 (GMT -0500)
La Guardia

Weather History for KLGA - October, 2019

Change the Weather History Date:

Sunday, October 6, 2019

  Actual Average Record
Temperature  
Mean Temperature 64 °F 62 °F  
Max Temperature 71 °F 69 °F 92 °F (1941)
Min Temperature 57 °F 54 °F 40 °F (1958)
Degree Days  
Heating Degree Days 1 5  
Month to date heating degree days 24 26  
Since 1 July heating degree days 27 61  
Cooling Degree Days 0 1  
Month to date cooling degree days 22 11  
Year to date cooling degree days 1477 1201  
Growing Degree Days 13 (Base 50)    
Moisture  
Dew Point 55 °F    
Average Humidity 68    
Maximum Humidity 78    
Minimum Humidity 57    
Precipitation  
Precipitation 0.01 in 0.12 in 1.69 in (1955)
Month to date precipitation 0.45 0.74  
Year to date precipitation 36.93 34.72  
Snow  
Snow 0.00 in 0.00 in - ()
Month to date snowfall 0.0 0.0  
Since 1 July snowfall 0.0 0.0  
Snow Depth 0.00 in    
Sea Level Pressure  
Sea Level Pressure 30.29 in    
Wind  
Wind Speed 11 mph (SSE)    
Max Wind Speed 22 mph    
Max Gust Speed 30 mph    
Visibility 10 miles    
Events Rain    
T = Trace of Precipitation, MM = Missing Value Source: NWS Daily Summary

Daily Weather History Graph

Daily Weather History Graph

Search for Another Location

Airport or City:

Astronomy

Oct. 06, 2019 Rise Set
Actual Time 6:56 AM EDT 6:29 PM EDT
Civil Twilight 6:29 AM EDT 6:57 PM EDT
Nautical Twilight 5:57 AM EDT 7:28 PM EDT
Astronomical Twilight 5:25 AM EDT 8:00 PM EDT
Moon 3:09 PM EDT (10/6) No Moon Set
Length of Visible Light 12h 27m
Length of Day
11h 32m
First Quarter, 59% of the Moon is Illuminated
Oct 6
First Quarter
Oct 13
Full
Oct 21
Last Quarter
Oct 27
New
Nov 4
First Quarter

Hourly Weather History & Observations

Time (EDT) Temp. Dew Point Humidity Pressure Visibility Wind Dir Wind Speed Gust Speed Precip Events Conditions
12:51 AM 57.0 °F 43.0 °F 59% 30.36 in 10.0 mi East 5.8 mph - N/A   Mostly Cloudy
1:51 AM 59.0 °F 46.0 °F 62% 30.35 in 10.0 mi SE 5.8 mph - N/A   Overcast
2:51 AM 59.0 °F 46.9 °F 64% 30.34 in 10.0 mi East 8.1 mph - N/A   Overcast
3:51 AM 59.0 °F 46.0 °F 62% 30.33 in 10.0 mi SE 5.8 mph - N/A   Scattered Clouds
4:51 AM 61.0 °F 46.9 °F 60% 30.32 in 10.0 mi SE 3.5 mph - N/A   Overcast
5:51 AM 62.1 °F 48.9 °F 62% 30.32 in 10.0 mi South 8.1 mph - N/A   Overcast
6:51 AM 63.0 °F 50.0 °F 63% 30.32 in 10.0 mi South 9.2 mph - N/A   Mostly Cloudy
7:51 AM 64.0 °F 51.1 °F 63% 30.32 in 10.0 mi South 9.2 mph - N/A   Mostly Cloudy
8:51 AM 64.9 °F 52.0 °F 63% 30.32 in 10.0 mi South 10.4 mph - N/A   Overcast
9:51 AM 66.0 °F 53.1 °F 63% 30.32 in 10.0 mi South 15.0 mph - N/A   Overcast
11:51 AM 68.0 °F 57.0 °F 68% 30.31 in 10.0 mi South 13.8 mph - N/A   Overcast
12:51 PM 69.1 °F 57.9 °F 68% 30.30 in 10.0 mi South 13.8 mph 26.5 mph N/A   Overcast
1:51 PM 70.0 °F 60.1 °F 71% 30.27 in 10.0 mi South 17.3 mph 25.3 mph N/A   Overcast
2:51 PM 70.0 °F 61.0 °F 73% 30.25 in 10.0 mi South 18.4 mph 28.8 mph N/A   Overcast
3:51 PM 70.0 °F 61.0 °F 73% 30.25 in 10.0 mi South 15.0 mph - N/A   Overcast
4:51 PM 70.0 °F 62.1 °F 76% 30.25 in 10.0 mi South 13.8 mph - N/A   Overcast
5:51 PM 70.0 °F 62.1 °F 76% 30.24 in 10.0 mi South 10.4 mph - N/A   Overcast
6:51 PM 70.0 °F 62.1 °F 76% 30.24 in 10.0 mi South 10.4 mph - 0.00 in Rain Light Rain
7:51 PM 69.1 °F 61.0 °F 75% 30.23 in 10.0 mi South 10.4 mph - 0.01 in Rain Light Rain
8:51 PM 69.1 °F 61.0 °F 75% 30.23 in 10.0 mi South 10.4 mph - 0.00 in Rain Light Rain
9:51 PM 69.1 °F 61.0 °F 75% 30.24 in 10.0 mi South 10.4 mph - 0.00 in   Overcast
10:51 PM 70.0 °F 61.0 °F 73% 30.23 in 10.0 mi South 9.2 mph - 0.00 in Rain Light Rain
11:51 PM 70.0 °F 60.1 °F 71% 30.22 in 10.0 mi SSW 9.2 mph - 0.00 in   Overcast